Weather History for KOLE - July, 2013

Change the Weather History Date:

Tuesday, July 9, 2013

  Actual Average (KBFD) Record (KBFD)
Temperature  
Mean Temperature 68 °F 65 °F  
Max Temperature 73 °F 77 °F 92 °F (1988)
Min Temperature 64 °F 53 °F 33 °F (1963)
Degree Days  
Heating Degree Days 0 0  
Month to date heating degree days 1  
Since 1 June heating degree days 146  
Since 1 July heating degree days 1  
Cooling Degree Days 4 3  
Month to date cooling degree days 21  
Year to date cooling degree days 71  
Since 1 June cooling degree days 61  
Growing Degree Days 18 (Base 50)    
Moisture  
Dew Point 66 °F    
Average Humidity 95    
Maximum Humidity 100    
Minimum Humidity 83    
Precipitation  
Precipitation 0.00 in 0.14 in 1.32 in (2010)
Month to date precipitation 1.21  
Year to date precipitation 22.86  
Sea Level Pressure  
Sea Level Pressure 30.08 in    
Wind  
Wind Speed 4 mph (SSW)    
Max Wind Speed 9 mph    
Max Gust Speed -    
Visibility 6 miles    
Events Rain    
T = Trace of Precipitation, MM = Missing Value Source: NWS Daily Summary

Daily Weather History Graph

Daily Weather History Graph

Search for Another Location

Airport or City:

Trip Planner

Search our weather history database for the weather conditions in past years. The results will help you decide how hot, cold, wet, or windy it might be!

Date:

Astronomy

Jul. 09, 2013 Rise Set
Actual Time 5:45 AM EDT 8:51 PM EDT
Civil Twilight 5:11 AM EDT 9:25 PM EDT
Nautical Twilight 4:28 AM EDT 10:08 PM EDT
Astronomical Twilight 3:36 AM EDT 10:59 PM EDT
Moon 7:11 AM EDT (7/9) 9:24 PM EDT (7/9)
Length of Visible Light 16h 13m
Length of Day
15h 05m
New Moon, 2% of the Moon is Illuminated
Jul 9
New Moon
Jul 15
First Quarter
Jul 22
Full
Jul 29
Last Quarter
Aug 6
New

Hourly Weather History & Observations

Time (EDT) Temp. Dew Point Humidity Pressure Visibility Wind Dir Wind Speed Gust Speed Precip Events Conditions
12:15 AM 68.0 °F 64.4 °F 88% 30.13 in 10.0 mi SSE 3.5 mph - N/A   Clear
12:35 AM 68.0 °F 64.4 °F 88% 30.12 in 10.0 mi South 4.6 mph - N/A   Clear
12:55 AM 68.0 °F 64.4 °F 88% 30.12 in 10.0 mi Calm Calm - N/A   Scattered Clouds
1:15 AM 68.0 °F 64.4 °F 88% 30.12 in 10.0 mi Calm Calm - N/A   Mostly Cloudy
1:35 AM 64.4 °F 64.4 °F 100% 30.12 in 5.0 mi Calm Calm - N/A   Scattered Clouds
1:55 AM 68.0 °F 64.4 °F 88% 30.11 in 10.0 mi Calm Calm - N/A   Clear
2:15 AM 66.2 °F 64.4 °F 94% 30.12 in 10.0 mi SSW 4.6 mph - N/A   Clear
2:35 AM 66.2 °F 64.4 °F 94% 30.11 in 10.0 mi SSW 3.5 mph - N/A   Scattered Clouds
2:55 AM 66.2 °F 64.4 °F 94% 30.11 in 7.0 mi South 4.6 mph - N/A   Clear
3:15 AM 64.4 °F 64.4 °F 100% 30.11 in 7.0 mi SSW 3.5 mph - N/A   Clear
3:35 AM 64.4 °F 64.4 °F 100% 30.11 in 5.0 mi SW 4.6 mph - N/A   Clear
3:55 AM 64.4 °F 64.4 °F 100% 30.11 in 7.0 mi SW 3.5 mph - N/A   Clear
4:15 AM 64.4 °F 64.4 °F 100% 30.11 in 5.0 mi Calm Calm - N/A   Clear
4:35 AM 64.4 °F 64.4 °F 100% 30.11 in 4.0 mi Calm Calm - N/A   Clear
4:55 AM 64.4 °F 64.4 °F 100% 30.11 in 4.0 mi SSW 4.6 mph - N/A   Scattered Clouds
5:15 AM 64.4 °F 64.4 °F 100% 30.11 in 4.0 mi SSW 3.5 mph - N/A   Mostly Cloudy
5:35 AM 64.4 °F 64.4 °F 100% 30.11 in 5.0 mi SSW 4.6 mph - N/A   Overcast
5:55 AM 64.4 °F 64.4 °F 100% 30.11 in 5.0 mi SSW 3.5 mph - N/A   Overcast
6:15 AM 64.4 °F 64.4 °F 100% 30.11 in 3.0 mi SSW 3.5 mph - N/A   Overcast
6:35 AM 64.4 °F 64.4 °F 100% 30.11 in 3.0 mi SSW 3.5 mph - N/A   Mostly Cloudy
6:55 AM 64.4 °F 64.4 °F 100% 30.12 in 3.0 mi South 4.6 mph - N/A   Overcast
7:15 AM 64.4 °F 64.4 °F 100% 30.12 in 3.0 mi SSW 3.5 mph - N/A   Overcast
7:35 AM 64.4 °F 64.4 °F 100% 30.12 in 1.5 mi Calm Calm - N/A   Overcast
7:55 AM 64.4 °F 64.4 °F 100% 30.12 in 5.0 mi SSW 3.5 mph - N/A   Overcast
8:15 AM 64.4 °F 64.4 °F 100% 30.11 in 7.0 mi SSW 5.8 mph - N/A Rain Light Rain
8:35 AM 64.4 °F 64.4 °F 100% 30.11 in 5.0 mi South 5.8 mph - N/A Rain Rain
8:55 AM 64.4 °F 64.4 °F 100% 30.11 in 4.0 mi South 3.5 mph - N/A Rain Light Rain
9:15 AM 64.4 °F 64.4 °F 100% 30.11 in 5.0 mi South 5.8 mph - N/A   Overcast
9:35 AM 64.4 °F 64.4 °F 100% 30.11 in 5.0 mi South 6.9 mph - N/A   Overcast
9:55 AM 66.2 °F 64.4 °F 94% 30.11 in 5.0 mi South 4.6 mph - N/A   Overcast
10:15 AM 66.2 °F 64.4 °F 94% 30.11 in 5.0 mi SSW 5.8 mph - N/A Rain Light Rain
10:35 AM 66.2 °F 64.4 °F 94% 30.11 in 4.0 mi SSW 3.5 mph - N/A Rain Light Rain
10:55 AM 66.2 °F 66.2 °F 100% 30.10 in 5.0 mi South 4.6 mph - N/A Rain Light Rain
11:15 AM 68.0 °F 68.0 °F 100% 30.10 in 7.0 mi Calm Calm - N/A   Light Drizzle
11:35 AM 69.8 °F 68.0 °F 94% 30.09 in 7.0 mi South 5.8 mph - N/A   Overcast
11:55 AM 69.8 °F 66.2 °F 88% 30.09 in 10.0 mi SSW 8.1 mph - N/A   Overcast
12:15 PM 71.6 °F 68.0 °F 88% 30.09 in 10.0 mi South 9.2 mph - N/A   Overcast
12:35 PM 69.8 °F 66.2 °F 88% 30.09 in 10.0 mi South 5.8 mph - N/A   Overcast
12:55 PM 69.8 °F 68.0 °F 94% 30.09 in 7.0 mi SSW 4.6 mph - N/A   Overcast
1:15 PM 69.8 °F 66.2 °F 88% 30.09 in 10.0 mi SSW 6.9 mph - N/A   Overcast
1:35 PM 69.8 °F 66.2 °F 88% 30.09 in 10.0 mi SSW 6.9 mph - N/A   Overcast
1:55 PM 69.8 °F 66.2 °F 88% 30.08 in 10.0 mi SSW 5.8 mph - N/A   Overcast
2:15 PM 68.0 °F 64.4 °F 88% 30.08 in 10.0 mi SSW 5.8 mph - N/A   Overcast
2:35 PM 68.0 °F 66.2 °F 94% 30.08 in 3.0 mi SSW 5.8 mph - N/A Rain Rain
2:55 PM 68.0 °F 66.2 °F 94% 30.08 in 2.0 mi SSW 4.6 mph - N/A Rain Rain
3:15 PM 66.2 °F 66.2 °F 100% 30.08 in 1.2 mi SSW 3.5 mph - N/A   Light Drizzle
3:35 PM 68.0 °F 68.0 °F 100% 30.07 in 5.0 mi SW 4.6 mph - N/A   Overcast
3:55 PM 68.0 °F 68.0 °F 100% 30.07 in 5.0 mi SSW 4.6 mph - N/A   Overcast
4:15 PM 69.8 °F 68.0 °F 94% 30.05 in 7.0 mi SSW 5.8 mph - N/A   Overcast
4:35 PM 69.8 °F 68.0 °F 94% 30.05 in 7.0 mi SSW 3.5 mph - N/A   Overcast
4:55 PM 69.8 °F 68.0 °F 94% 30.04 in 7.0 mi SSW 4.6 mph - N/A   Overcast
5:15 PM 71.6 °F 68.0 °F 88% 30.04 in 7.0 mi SSW 6.9 mph - N/A   Overcast
5:35 PM 71.6 °F 69.8 °F 94% 30.03 in 7.0 mi SSW 4.6 mph - N/A   Mostly Cloudy
5:55 PM 71.6 °F 68.0 °F 88% 30.02 in 7.0 mi South 3.5 mph - N/A   Mostly Cloudy
6:15 PM 71.6 °F 68.0 °F 88% 30.01 in 7.0 mi South 3.5 mph - N/A   Mostly Cloudy
6:35 PM 71.6 °F 68.0 °F 88% 30.02 in 7.0 mi Calm Calm - N/A   Overcast
6:55 PM 73.4 °F 68.0 °F 83% 30.02 in 7.0 mi SSW 3.5 mph - N/A   Mostly Cloudy
7:15 PM 73.4 °F 68.0 °F 83% 30.01 in 7.0 mi SSW 4.6 mph - N/A   Scattered Clouds
7:35 PM 71.6 °F 68.0 °F 88% 30.02 in 7.0 mi Calm Calm - N/A   Scattered Clouds
7:55 PM 71.6 °F 68.0 °F 88% 30.02 in 7.0 mi South 3.5 mph - N/A   Mostly Cloudy
8:15 PM 69.8 °F 68.0 °F 94% 30.02 in 5.0 mi Calm Calm - N/A   Mostly Cloudy
8:35 PM 69.8 °F 68.0 °F 94% 30.02 in 5.0 mi South 3.5 mph - N/A   Overcast
8:55 PM 69.8 °F 68.0 °F 94% 30.02 in 5.0 mi Calm Calm - N/A   Overcast
9:15 PM 69.8 °F 68.0 °F 94% 30.02 in 7.0 mi SSW 4.6 mph - N/A   Overcast
9:35 PM 69.8 °F 68.0 °F 94% 30.02 in 7.0 mi South 4.6 mph - N/A   Scattered Clouds
9:55 PM 69.8 °F 68.0 °F 94% 30.02 in 5.0 mi South 5.8 mph - N/A   Scattered Clouds
10:15 PM 69.8 °F 68.0 °F 94% 30.02 in 5.0 mi SSW 4.6 mph - N/A   Scattered Clouds
10:35 PM 68.0 °F 68.0 °F 100% 30.01 in 5.0 mi SSW 4.6 mph - N/A   Scattered Clouds
10:55 PM 68.0 °F 68.0 °F 100% 30.01 in 4.0 mi Calm Calm - N/A   Mostly Cloudy
11:15 PM 68.0 °F 68.0 °F 100% 30.01 in 4.0 mi SSW 4.6 mph - N/A   Scattered Clouds
11:35 PM 68.0 °F 68.0 °F 100% 30.01 in 4.0 mi SSW 4.6 mph - N/A   Mostly Cloudy
11:55 PM 68.0 °F 68.0 °F 100% 30.00 in 4.0 mi SSW 4.6 mph - N/A   Overcast